This demonstration page uses our WeatherBlox Daily Observations layout. Learn more.

36.17497, -115.13722

Hourly Observations for June 12, 2016

Temp ( °F °C ) Dew Point ( °F °C ) Humidity (%) Winds ( mph kmh ) Pressure ( in mb ) Visibility ( mi km ) Precip ( " mm )
12:53 am 00:53 Clear 82 27.8 44 6.7 26 26 SSE 7 11 29.82 1010 10 16.0934 0 0
1:53 am 01:53 Clear 81 27.2 43 6.1 26 26 SE 10 17 29.83 1010 10 16.0934 0 0
2:53 am 02:53 Clear 79 26.1 45 7.2 30 30 SE 7 11 29.84 1010 10 16.0934 0 0
3:53 am 03:53 Clear 77 25 46 7.8 33 33 SE 10 17 29.84 1011 10 16.0934 0 0
4:53 am 04:53 Clear 76 24.4 46 7.8 35 35 SE 7 11 29.86 1011 10 16.0934 0 0
5:53 am 05:53 Sunny 74 23.3 46 7.8 37 37 ESE 6 9 29.89 1012 10 16.0934 0 0
6:53 am 06:53 Sunny 77 25 45 7.2 32 32 E 8 13 29.91 1013 10 16.0934 0 0
7:53 am 07:53 Sunny 79 26.1 46 7.8 31 31 ESE 10 17 29.93 1014 10 16.0934 0 0
8:53 am 08:53 Sunny 81 27.2 45 7.2 28 28 SSE 8 13 29.94 1014 10 16.0934 0 0
9:53 am 09:53 Sunny 83 28.3 43 6.1 24 24 ESE 8 13 29.94 1014 10 16.0934 0 0
10:53 am 10:53 Sunny 87 30.6 41 5 20 20 SE 14 22 29.94 1014 10 16.0934 0 0
11:53 am 11:53 Sunny 88 31.1 42 5.6 20 20 SSE 14 22 29.93 1013 10 16.0934 0 0
12:53 pm 12:53 Sunny 89 31.7 41 5 19 19 SE 16 26 29.92 1013 10 16.0934 0 0
1:53 pm 13:53 Sunny 91 32.8 40 4.4 17 17 S 8 13 29.89 1012 10 16.0934 0 0
2:53 pm 14:53 Sunny 93 33.9 36 2.2 13 13 SSE 22 35 29.88 1012 10 16.0934 0 0
3:53 pm 15:53 Partly Cloudy 93 33.9 36 2.2 13 13 S 16 26 29.86 1011 10 16.0934 0 0
4:53 pm 16:53 Sunny 93 33.9 34 1.1 12 12 SSW 8 13 29.85 1011 10 16.0934 0 0
5:21 pm 17:21 Sunny 92 33.3 37 2.8 14 14 WNW 13 20 29.71 1006 10 16.0934 0 0
5:53 pm 17:53 Sunny 90 32.2 37 2.8 15 15 W 9 15 29.86 1011 10 16.0934 0 0
6:53 pm 18:53 Sunny 91 32.8 32 0 12 12 SW 12 19 29.86 1011 10 16.0934 0 0
7:53 pm 19:53 Sunny 89 31.7 32 0 13 13 W 8 13 29.86 1011 10 16.0934 0 0
8:53 pm 20:53 Clear 87 30.6 34 1.1 15 15 W 7 11 29.88 1012 10 16.0934 0 0
9:53 pm 21:53 Clear 85 29.4 34 1.1 16 16 WSW 3 6 29.9 1012 10 16.0934 0 0
10:53 pm 22:53 Clear 83 28.3 34 1.1 17 17 SW 7 11 29.9 1012 10 16.0934 0 0
11:53 pm 23:53 Clear 80 26.7 35 1.7 20 20 Calm 29.9 1012 10 16.0934 0 0

Powered by AerisWeather